When you browse on this site, cookies collect data to enhance your experience and personalize the content and advertising you see.
Visit our Privacy Policy to learn more. By continuing to use the site, you agree to this use of cookies and data.
  • In Spain
  • List of Countries
  • For 7 days
  • Water Temperature
  • Satellite Maps
  • Weather Map
  • Weather Widgets
  • user-avatar
    Login

    Hourly Weather Quito

    Today, 24 July, Wednesday

    Time Temperature Precipitation Wind Pressure Humidity
    00:00 +12°C° 0 mm 0 mps 622 mmHg 30%
    01:00 +12°C° 0 mm 1 mps 621 mmHg 32%
    02:00 +11°C° 0 mm 1 mps 621 mmHg 33%
    03:00 +11°C° 0 mm 1 mps 621 mmHg 35%
    04:00 +10°C° 0 mm 1 mps 621 mmHg 36%
    05:00 +11°C° 0 mm 1 mps 621 mmHg 36%
    06:00 +11°C° 0 mm 1 mps 622 mmHg 36%
    07:00 +11°C° 0 mm 1 mps 622 mmHg 36%
    08:00 +15°C° 0 mm 2 mps 623 mmHg 30%
    09:00 +19°C° 0 mm 3 mps 624 mmHg 24%
    10:00 +23°C° 0 mm 4 mps 625 mmHg 18%
    11:00 +25°C° 0 mm 3 mps 625 mmHg 16%
    12:00 +27°C° 0 mm 3 mps 625 mmHg 14%
    13:00 +29°C° 0 mm 3 mps 625 mmHg 12%
    14:00 +28°C° 0 mm 2 mps 624 mmHg 12%
    15:00 +28°C° 0 mm 2 mps 624 mmHg 12%
    16:00 +28°C° 0 mm 2 mps 623 mmHg 11%
    17:00 +25°C° 0 mm 1 mps 622 mmHg 15%
    18:00 +21°C° 0 mm 1 mps 622 mmHg 19%
    19:00 +15°C° 0 mm 0 mps 621 mmHg 22%
    20:00 +14°C° 0 mm 0 mps 621 mmHg 23%
    21:00 +14°C° 0 mm 0 mps 622 mmHg 24%
    22:00 +14°C° 0 mm 1 mps 622 mmHg 25%
    23:00 +14°C° 0 mm 1 mps 622 mmHg 26%

    Tomorrow, 25 July, Thursday

    Time Temperature Precipitation Wind Pressure Humidity
    00:00 +13°C° 0 mm 1 mps 622 mmHg 27%
    01:00 +12°C° 0 mm 1 mps 621 mmHg 28%
    02:00 +12°C° 0 mm 1 mps 621 mmHg 28%
    03:00 +11°C° 0 mm 1 mps 621 mmHg 29%
    04:00 +11°C° 0 mm 1 mps 621 mmHg 29%
    05:00 +11°C° 0 mm 1 mps 622 mmHg 29%
    06:00 +11°C° 0 mm 1 mps 622 mmHg 30%
    07:00 +12°C° 0 mm 1 mps 623 mmHg 30%
    08:00 +16°C° 0 mm 2 mps 624 mmHg 25%
    09:00 +20°C° 0 mm 3 mps 625 mmHg 19%
    10:00 +25°C° 0 mm 4 mps 626 mmHg 13%
    11:00 +27°C° 0 mm 4 mps 626 mmHg 12%
    12:00 +28°C° 0 mm 3 mps 626 mmHg 10%
    13:00 +29°C° 0 mm 3 mps 626 mmHg 9%
    14:00 +29°C° 0 mm 3 mps 625 mmHg 8%
    15:00 +29°C° 0 mm 2 mps 624 mmHg 8%
    16:00 +29°C° 0 mm 2 mps 624 mmHg 8%
    17:00 +25°C° 0 mm 1 mps 623 mmHg 11%
    18:00 +21°C° 0 mm 1 mps 622 mmHg 13%
    19:00 +18°C° 0 mm 1 mps 622 mmHg 16%
    20:00 +16°C° 0 mm 1 mps 622 mmHg 17%
    21:00 +15°C° 0 mm 1 mps 622 mmHg 17%
    22:00 +14°C° 0 mm 1 mps 622 mmHg 18%
    23:00 +13°C° 0 mm 1 mps 622 mmHg 19%

    Day after tomorrow, 26 July, Friday

    Time Temperature Precipitation Wind Pressure Humidity
    00:00 +13°C° 0 mm 1 mps 622 mmHg 21%
    01:00 +12°C° 0 mm 1 mps 622 mmHg 22%
    02:00 +12°C° 0 mm 1 mps 622 mmHg 24%
    03:00 +11°C° 0 mm 1 mps 622 mmHg 25%
    04:00 +11°C° 0 mm 1 mps 621 mmHg 26%
    05:00 +11°C° 0 mm 1 mps 622 mmHg 26%
    06:00 +12°C° 0 mm 1 mps 623 mmHg 26%
    07:00 +12°C° 0 mm 1 mps 623 mmHg 26%
    08:00 +16°C° 0 mm 2 mps 624 mmHg 21%
    09:00 +20°C° 0 mm 3 mps 625 mmHg 16%
    10:00 +25°C° 0 mm 4 mps 626 mmHg 12%
    11:00 +26°C° 0 mm 4 mps 626 mmHg 11%
    12:00 +28°C° 0 mm 4 mps 626 mmHg 9%
    13:00 +29°C° 0 mm 3 mps 625 mmHg 8%
    14:00 +29°C° 0 mm 3 mps 625 mmHg 8%
    15:00 +29°C° 0 mm 3 mps 624 mmHg 8%
    16:00 +29°C° 0 mm 3 mps 624 mmHg 8%
    17:00 +25°C° 0 mm 2 mps 623 mmHg 11%
    18:00 +21°C° 0 mm 1 mps 622 mmHg 14%
    19:00 +15°C° 0 mm 0 mps 621 mmHg 18%
    20:00 +15°C° 0 mm 1 mps 622 mmHg 18%
    21:00 +15°C° 0 mm 1 mps 622 mmHg 19%
    22:00 +14°C° 0 mm 1 mps 622 mmHg 20%
    23:00 +13°C° 0 mm 1 mps 622 mmHg 22%

    27 July, Saturday

    Time Temperature Precipitation Wind Pressure Humidity
    00:00 +12°C° 0 mm 1 mps 622 mmHg 23%
    01:00 +12°C° 0 mm 1 mps 621 mmHg 25%
    02:00 +11°C° 0 mm 1 mps 621 mmHg 26%
    03:00 +11°C° 0 mm 1 mps 621 mmHg 28%
    04:00 +10°C° 0 mm 1 mps 621 mmHg 29%
    05:00 +11°C° 0 mm 1 mps 622 mmHg 29%
    06:00 +12°C° 0 mm 1 mps 623 mmHg 28%
    07:00 +12°C° 0 mm 1 mps 623 mmHg 28%
    08:00 +16°C° 0 mm 2 mps 624 mmHg 23%
    09:00 +20°C° 0 mm 3 mps 625 mmHg 18%
    10:00 +25°C° 0 mm 4 mps 626 mmHg 13%
    11:00 +26°C° 0 mm 4 mps 626 mmHg 11%
    12:00 +28°C° 0 mm 3 mps 625 mmHg 10%
    13:00 +29°C° 0 mm 2 mps 625 mmHg 9%
    14:00 +29°C° 0 mm 2 mps 625 mmHg 9%
    15:00 +29°C° 0 mm 2 mps 624 mmHg 9%
    16:00 +29°C° 0 mm 2 mps 624 mmHg 9%
    17:00 +25°C° 0 mm 2 mps 623 mmHg 12%
    18:00 +22°C° 0 mm 1 mps 622 mmHg 15%
    19:00 +18°C° 0 mm 1 mps 621 mmHg 18%
    20:00 +18°C° 0 mm 1 mps 621 mmHg 18%
    21:00 +16°C° 0 mm 1 mps 622 mmHg 18%
    22:00 +15°C° 0 mm 1 mps 622 mmHg 19%
    23:00 +14°C° 0 mm 1 mps 621 mmHg 21%

    28 July, Sunday

    Time Temperature Precipitation Wind Pressure Humidity
    00:00 +13°C° 0 mm 1 mps 621 mmHg 23%
    01:00 +12°C° 0 mm 1 mps 621 mmHg 24%
    02:00 +12°C° 0 mm 1 mps 621 mmHg 26%
    03:00 +12°C° 0 mm 1 mps 621 mmHg 27%
    04:00 +11°C° 0 mm 1 mps 621 mmHg 29%
    05:00 +11°C° 0 mm 1 mps 621 mmHg 29%
    06:00 +12°C° 0 mm 1 mps 622 mmHg 28%
    07:00 +12°C° 0 mm 1 mps 622 mmHg 28%
    08:00 +16°C° 0 mm 2 mps 623 mmHg 23%
    09:00 +20°C° 0 mm 3 mps 624 mmHg 18%
    10:00 +26°C° 0 mm 3 mps 626 mmHg 13%
    11:00 +27°C° 0 mm 3 mps 625 mmHg 11%
    12:00 +29°C° 0 mm 2 mps 625 mmHg 10%
    13:00 +30°C° 0 mm 2 mps 625 mmHg 9%
    14:00 +30°C° 0 mm 2 mps 624 mmHg 9%
    15:00 +30°C° 0 mm 2 mps 624 mmHg 9%
    16:00 +29°C° 0 mm 2 mps 623 mmHg 9%
    17:00 +26°C° 0 mm 1 mps 623 mmHg 11%
    18:00 +22°C° 0 mm 1 mps 622 mmHg 14%
    19:00 +19°C° 0 mm 1 mps 621 mmHg 16%
    20:00 +18°C° 0 mm 1 mps 621 mmHg 17%
    21:00 +15°C° 0 mm 0 mps 622 mmHg 18%
    22:00 +14°C° 0 mm 0 mps 622 mmHg 18%
    23:00 +13°C° 0 mm 0 mps 621 mmHg 19%

    29 July, Monday

    Time Temperature Precipitation Wind Pressure Humidity
    00:00 +13°C° 0 mm 0 mps 621 mmHg 20%
    01:00 +12°C° 0 mm 0 mps 621 mmHg 21%
    02:00 +12°C° 0 mm 1 mps 621 mmHg 23%
    03:00 +12°C° 0 mm 1 mps 621 mmHg 24%
    04:00 +11°C° 0 mm 1 mps 620 mmHg 25%
    05:00 +12°C° 0 mm 1 mps 621 mmHg 25%
    06:00 +12°C° 0 mm 1 mps 622 mmHg 25%
    07:00 +13°C° 0 mm 1 mps 622 mmHg 25%
    08:00 +18°C° 0 mm 1 mps 624 mmHg 21%
    09:00 +23°C° 0 mm 1 mps 625 mmHg 17%
    10:00 +28°C° 0 mm 2 mps 626 mmHg 13%
    11:00 +29°C° 0 mm 2 mps 626 mmHg 12%
    12:00 +30°C° 0 mm 2 mps 625 mmHg 11%
    13:00 +32°C° 0 mm 2 mps 625 mmHg 10%
    14:00 +31°C° 0 mm 2 mps 624 mmHg 10%
    15:00 +31°C° 0 mm 2 mps 624 mmHg 10%
    16:00 +30°C° 0 mm 2 mps 623 mmHg 10%
    17:00 +27°C° 0 mm 2 mps 622 mmHg 13%
    18:00 +23°C° 0 mm 1 mps 622 mmHg 17%
    19:00 +19°C° 0 mm 1 mps 621 mmHg 20%
    20:00 +18°C° 0 mm 1 mps 621 mmHg 21%
    21:00 +18°C° 0 mm 1 mps 621 mmHg 21%
    22:00 +16°C° 0 mm 1 mps 622 mmHg 22%
    23:00 +15°C° 0 mm 1 mps 622 mmHg 23%
    Show more